Location: Sternwarte_Laufen
(47.9344°N, 12.9346°E)
Time: 23:41:07
(UTC+02:00)

ELECTRON R/B - Visible Passes

Search period start: 22 May 2018 00:00
Search period end: 01 June 2018 00:00
Orbit: 285 x 480 km, 82.9° (Epoch: 21 May)

Date Brightness Start Highest point End Pass type
(mag) Time Alt. Az. Time Alt. Az. Time Alt. Az.
22 May 5.7 22:06:55 10° NNW 22:09:12 36° W 22:11:29 10° SSW visible
24 May 5.4 21:46:41 10° NNW 21:49:02 43° W 21:51:24 10° S visible
27 May 7.6 22:03:35 10° WNW 22:04:28 11° W 22:05:21 10° WSW visible
29 May 7.5 21:42:16 10° WNW 21:43:37 14° W 21:45:00 10° WSW visible
